{"data":{"norad_id":54166,"intl_designator":"2022-141K","name":"STARLINK-5280","alt_names":[],"object_type":"PAYLOAD","status":"ACTIVE","operator":null,"country":"US","launch_date":"2022-10-28","launch_site_code":"AFWTR","launch_vehicle":null,"mission":null,"orbit_class":"UNKNOWN","rcs_meters":null,"size_class":null,"mass_kg":null,"dimensions":null,"purposes":["comms"],"wikipedia_slug":null,"has_3d_model":false,"image_url":null,"decayed_at":null,"tle_current":{"epoch":"2026-05-24T22:01:48.442656Z","epoch_age_seconds":81799,"freshness":"FRESH","line1":"1 54166U 22141K   26144.91792179  .00000760  00000+0  65844-4 0  9997","line2":"2 54166  53.2140  22.0475 0001351  91.0787 269.0360 15.08839584197364","mean_motion":15.08839584,"eccentricity":0.0001351,"inclination_deg":53.214,"raan_deg":22.0475,"arg_perigee_deg":91.0787,"mean_anomaly_deg":269.036,"bstar":6.5844e-5,"rev_number":19736,"period_min":95.437580990717,"perigee_km":538.81005469764,"apogee_km":540.67926632231,"semimajor_km":6917.88166051,"source":"CELESTRAK","updated_at":"2026-05-25T13:38:17.661042Z"}}}